This demonstration page uses our WeatherBlox Daily Observations layout. Learn more.

Left ArrowRight Arrow

36.19886, -115.1175

Hourly Observations for December 15, 2020

Temp ( °F °C ) Dew Point ( °F °C ) Humidity (%) Winds ( mph kmh ) Pressure ( in mb ) Visibility ( mi km ) Precip ( " mm )
12:53 am 00:53 Clear 47 8.3 19 -7.2 33 33 NNW 13 20 30.17 1022 10 16 N/A
1:53 am 01:53 Clear 47 8.3 18 -7.8 31 31 N 9 15 30.20 1023 10 16 N/A
2:53 am 02:53 Clear 47 8.3 18 -7.8 31 31 NW 17 28 30.21 1023 10 16 N/A
3:53 am 03:53 Clear 47 8.3 18 -7.8 31 31 NNW 13 20 30.23 1024 10 16 N/A
4:53 am 04:53 Clear 46 7.8 17 -8.3 31 31 NNW 15 24 30.26 1025 10 16 N/A
5:53 am 05:53 Clear 45 7.2 17 -8.3 33 33 NNW 16 26 30.28 1026 10 16 N/A
6:53 am 06:53 Sunny 43 6.1 17 -8.3 35 35 N 12 19 30.31 1026 10 16 N/A
7:53 am 07:53 Sunny 44 6.7 17 -8.3 34 34 NNW 10 17 30.35 1028 10 16 N/A
8:53 am 08:53 Sunny 48 8.9 17 -8.3 29 29 NNW 14 22 30.36 1028 10 16 N/A
9:53 am 09:53 Sunny 49 9.4 17 -8.3 28 28 NNW 16 26 30.36 1028 10 16 N/A
10:53 am 10:53 Sunny 51 10.6 17 -8.3 26 26 NNW 15 24 30.35 1028 10 16 N/A
11:53 am 11:53 Sunny 52 11.1 16 -8.9 24 24 N 8 13 30.32 1027 10 16 N/A
12:53 pm 12:53 Sunny 55 12.8 16 -8.9 21 21 NNW 13 20 30.29 1026 10 16 N/A
1:53 pm 13:53 Sunny 56 13.3 15 -9.4 20 20 NW 13 20 30.27 1025 10 16 N/A
2:53 pm 14:53 Sunny 56 13.3 15 -9.4 20 20 NW 10 17 30.26 1025 10 16 N/A
3:53 pm 15:53 Sunny 54 12.2 15 -9.4 21 21 NE 8 13 30.27 1025 10 16 N/A
4:53 pm 16:53 Clear 52 11.1 14 -10 22 22 N 7 11 30.28 1025 10 16 N/A
5:53 pm 17:53 Clear 51 10.6 14 -10 23 23 NNE 6 9 30.28 1026 10 16 N/A
6:53 pm 18:53 Clear 49 9.4 14 -10 25 25 WNW 9 15 30.29 1026 10 16 N/A
7:53 pm 19:53 Clear 48 8.9 14 -10 25 25 W 6 9 30.29 1026 10 16 N/A
8:53 pm 20:53 Clear 44 6.7 14 -10 30 30 WNW 6 9 30.31 1026 10 16 N/A
9:53 pm 21:53 Clear 46 7.8 14 -10 27 27 N N/A 30.31 1026 10 16 N/A
10:53 pm 22:53 Clear 43 6.1 15 -9.4 32 32 W 3 6 30.31 1026 10 16 N/A
11:53 pm 23:53 Clear 44 6.7 14 -10 30 30 W 6 9 30.29 1026 10 16 N/A

Powered by AerisWeather